Location: Stoke Bliss
(52.2667°N, 2.5167°W)
Time: 18:56:38
(UTC+00:00)

ISS - Visible Passes

Search period start: 29 November 2021 00:00
Search period end: 09 December 2021 00:00
Orbit: 417 x 423 km, 51.6° (Epoch: 29 November)

Date Brightness Start Highest point End Pass type
(mag) Time Alt. Az. Time Alt. Az. Time Alt. Az.
29 Nov -3.8 17:40:00 10° W 17:43:24 82° S 17:44:55 31° E visible
29 Nov -0.9 19:16:49 10° W 19:17:54 19° W 19:17:54 19° W visible
30 Nov -3.6 16:52:50 10° W 16:56:14 78° S 16:59:39 10° E visible
30 Nov -3.2 18:29:38 10° W 18:32:38 59° SW 18:32:38 59° SW visible
01 Dec -3.7 17:42:27 10° W 17:45:52 76° S 17:47:24 30° ESE visible
01 Dec -0.8 19:19:23 10° W 19:20:24 17° W 19:20:24 17° W visible
02 Dec -3.7 16:55:16 10° W 16:58:40 81° S 17:02:05 10° E visible
02 Dec -2.7 18:32:07 10° W 18:35:14 41° SSW 18:35:14 41° SSW visible
03 Dec -3.1 17:44:53 10° W 17:48:13 53° SSW 17:50:08 22° SE visible
03 Dec -0.6 19:22:17 10° W 19:23:09 14° WSW 19:23:09 14° WSW visible
04 Dec -3.4 16:57:40 10° W 17:01:02 65° SSW 17:04:25 10° ESE visible
04 Dec -1.7 18:34:44 10° W 18:37:30 23° SSW 18:38:12 21° SSW visible
05 Dec -2.0 17:47:21 10° W 17:50:24 31° SSW 17:53:24 10° SE visible
06 Dec -2.4 17:00:03 10° W 17:03:17 41° SSW 17:06:30 10° SE visible
06 Dec -0.6 18:38:15 10° WSW 18:39:26 11° SW 18:40:37 10° SSW visible
07 Dec -0.8 17:50:11 10° WSW 17:52:25 16° SW 17:54:38 10° S visible
08 Dec -1.1 17:02:36 10° W 17:05:20 23° SSW 17:08:04 10° SSE visible
